Date,TemperatureHighF,TemperatureAvgF,TemperatureLowF,DewpointHighF,DewpointAvgF,DewpointLowF,HumidityHigh,HumidityAvg,HumidityLow,PressureMaxIn,PressureMinIn,WindSpeedMaxMPH,WindSpeedAvgMPH,GustSpeedMaxMPH,PrecipitationSumIn
2014-1-1,50.0,33.0,25.0,22.0,16.7,12.0,65,52,32,0.00,40.00,6,2,16,0.00
2014-1-2,35.0,31.1,28.0,34.0,24.1,17.0,98,76,58,0.00,40.00,8,2,18,0.08
2014-1-3,23.0,15.1,10.0,10.0,-0.6,-6.0,60,50,30,0.00,40.00,13,6,30,0.01
2014-1-4,35.0,20.2,9.0,9.0,3.1,-99.9,65,50,32,0.00,40.00,5,2,12,0.00
2014-1-5,40.0,32.3,24.0,40.0,26.8,9.0,99,81,51,0.00,40.00,7,2,15,0.05
2014-1-6,40.0,23.0,-2.0,40.0,11.4,-19.0,99,63,39,0.00,40.00,10,6,30,0.10
2014-1-7,14.0,3.6,-5.0,-10.0,-15.9,-21.0,47,39,29,0.00,40.00,8,5,25,0.02
2014-1-8,35.0,18.6,6.0,9.0,-1.5,-11.0,49,41,28,0.00,40.00,6,3,16,0.00
2014-1-9,46.0,32.9,27.0,14.0,10.3,6.0,50,39,24,0.00,40.00,5,2,9,0.00
2014-1-10,38.0,34.9,30.0,38.0,30.0,12.0,99,85,42,0.00,40.00,3,1,6,0.45
2014-1-11,52.0,43.5,37.0,52.0,40.5,-99.9,99,92,65,0.00,40.00,8,4,21,0.62
2014-1-12,49.0,40.6,35.0,29.0,26.0,22.0,68,56,42,0.00,40.00,13,6,31,0.04
2014-1-13,52.0,41.1,31.0,37.0,28.8,24.0,86,62,41,0.00,40.00,6,3,14,0.01
2014-1-14,46.0,40.7,37.0,42.0,35.6,27.0,99,83,57,0.00,40.00,7,3,15,0.23
2014-1-15,38.0,33.4,29.0,30.0,25.6,18.0,88,73,61,0.00,40.00,7,3,15,0.01
2014-1-16,38.0,27.7,18.0,15.0,12.4,9.0,67,53,39,0.00,40.00,5,3,14,0.00
2014-1-17,47.0,34.8,26.0,30.0,19.3,12.0,89,55,31,0.00,40.00,7,4,21,0.00
2014-1-18,27.0,20.4,15.0,18.0,5.2,-99.9,69,54,42,0.00,40.00,7,4,21,0.02
2014-1-19,37.0,29.8,20.0,25.0,19.3,11.0,84,66,48,0.00,40.00,11,5,27,0.01
2014-1-20,53.0,42.0,35.0,23.0,19.1,14.0,55,40,27,0.00,40.00,9,6,25,0.01
2014-1-21,37.0,28.1,14.0,29.0,22.8,5.0,96,81,57,0.00,40.00,9,4,23,0.00
2014-1-22,21.0,11.5,3.0,4.0,-6.7,-14.0,66,45,23,0.00,40.00,6,4,21,0.08
2014-1-23,20.0,11.4,2.0,6.0,-4.3,-11.0,73,50,31,0.00,40.00,8,5,23,0.01
2014-1-24,20.0,8.3,-1.0,-6.0,-10.1,-15.0,61,44,26,0.00,40.00,9,4,19,0.00
2014-1-25,31.0,19.5,9.0,20.0,5.2,-99.9,85,57,41,0.00,40.00,11,6,33,0.00
2014-1-26,34.0,23.5,12.0,15.0,0.8,-8.0,50,37,23,0.00,40.00,10,5,25,0.03
2014-1-27,44.0,30.9,11.0,28.0,10.1,-11.0,59,43,24,0.00,40.00,12,6,29,0.17
2014-1-28,16.0,9.7,5.0,6.0,-6.6,-19.0,85,50,26,0.00,40.00,6,2,18,0.05
2014-1-29,26.0,13.3,3.0,6.0,-9.5,-18.0,84,38,19,0.00,40.00,6,4,20,0.04
2014-1-30,33.0,18.7,3.0,1.0,-5.9,-14.0,46,33,21,0.00,40.00,4,2,10,0.01
2014-1-31,47.0,33.3,19.0,19.0,6.3,0.0,50,34,17,0.00,40.00,9,3,20,0.00
2014-2-1,53.0,39.3,30.0,23.0,15.9,-99.9,61,41,23,0.00,40.00,8,3,17,0.00
2014-2-2,57.0,47.7,41.0,45.0,32.2,15.0,81,56,34,0.00,40.00,7,3,20,0.00
2014-2-3,48.0,38.7,34.0,47.0,37.0,30.0,99,94,80,0.00,40.00,6,3,14,1.84
2014-2-4,34.0,32.1,30.0,33.0,31.6,29.0,98,98,95,0.00,40.00,5,2,10,0.02
2014-2-5,49.0,33.7,26.0,36.0,28.7,16.0,98,83,55,0.00,40.00,10,4,25,0.37
2014-2-6,36.0,27.6,22.0,18.0,14.6,10.0,67,58,46,0.00,40.00,8,4,16,0.07
2014-2-7,39.0,28.2,21.0,17.0,14.2,11.0,74,57,39,0.00,40.00,5,3,15,0.00
2014-2-8,36.0,30.0,24.0,27.0,20.9,12.0,77,68,59,0.00,40.00,4,2,9,0.00
2014-2-9,39.0,35.5,31.0,33.0,27.6,21.0,82,73,65,0.00,40.00,9,5,21,0.00
2014-2-10,34.0,27.5,19.0,20.0,10.5,5.0,66,50,30,0.00,40.00,7,4,18,0.00
2014-2-11,38.0,24.0,13.0,9.0,5.7,0.0,71,48,24,0.00,40.00,4,3,9,0.00
2014-2-12,24.0,18.7,14.0,18.0,8.5,4.0,91,65,48,0.00,40.00,4,3,8,0.00
2014-2-13,32.0,25.4,20.0,31.0,22.6,18.0,96,89,65,0.00,40.00,11,6,30,0.00
2014-2-14,50.0,39.6,31.0,28.0,18.5,13.0,67,44,24,0.00,40.00,10,6,26,0.31
2014-2-15,35.0,27.3,19.0,33.0,16.2,-99.9,98,67,43,0.00,40.00,10,5,28,0.26
2014-2-16,35.0,25.9,18.0,23.0,15.1,9.0,69,63,52,0.00,40.00,11,5,24,0.02
2014-2-17,41.0,27.6,17.0,25.0,14.4,10.0,92,59,36,0.00,40.00,6,3,12,0.00
2014-2-18,56.0,40.6,25.0,27.0,18.7,10.0,94,49,17,0.00,40.00,9,5,25,0.07
2014-2-19,60.0,46.9,36.0,44.0,28.2,14.0,95,51,30,0.00,40.00,12,5,33,0.10
2014-2-20,51.0,42.1,35.0,32.0,25.9,18.0,72,53,35,0.00,40.00,6,2,12,0.01
2014-2-21,53.0,47.3,42.0,53.0,32.5,13.0,99,63,24,0.00,40.00,14,5,31,0.48
2014-2-22,60.0,47.0,39.0,16.0,12.2,-99.9,35,25,17,0.00,40.00,8,4,22,0.03
2014-2-23,65.0,48.8,39.0,30.0,20.6,14.0,61,35,19,0.00,40.00,10,5,27,0.00
2014-2-24,43.0,34.3,28.0,32.0,8.8,-1.0,74,38,17,0.00,40.00,9,6,20,0.00
2014-2-25,39.0,30.3,26.0,16.0,9.6,4.0,54,41,35,0.00,40.00,8,4,19,0.00
2014-2-26,34.0,27.2,18.0,15.0,8.5,-3.0,67,47,23,0.00,40.00,6,4,21,0.00
2014-2-27,37.0,24.7,17.0,4.0,-0.0,-4.0,54,35,19,0.00,40.00,10,6,28,0.00
2014-2-28,38.0,23.5,10.0,6.0,1.9,-6.0,52,39,26,0.00,40.00,6,3,14,0.00
2014-3-1,48.0,32.7,19.0,26.0,11.6,-99.9,51,43,30,0.00,40.00,5,3,13,0.00
2014-3-2,63.0,48.3,37.0,52.0,38.4,19.0,100,71,44,0.00,40.00,9,4,23,0.26
2014-3-3,48.0,24.7,11.0,48.0,22.6,8.0,100,91,82,0.00,40.00,8,5,17,0.56
2014-3-4,35.0,17.2,4.0,22.0,11.0,0.0,86,77,55,0.00,40.00,4,2,8,0.35
2014-3-5,53.0,33.4,20.0,29.0,19.8,14.0,85,61,32,0.00,40.00,4,2,11,0.01
2014-3-6,36.0,29.6,23.0,18.0,14.0,10.0,67,52,39,0.00,40.00,6,4,12,0.00
2014-3-7,48.0,34.3,24.0,34.0,27.8,17.0,97,78,56,0.00,40.00,5,3,10,0.00
2014-3-8,63.0,46.5,33.0,37.0,28.3,-99.9,90,56,27,0.00,40.00,7,3,18,0.00
2014-3-9,52.0,45.2,41.0,33.0,26.3,17.0,68,49,29,0.00,40.00,8,5,22,0.00
2014-3-10,68.0,51.2,40.0,28.0,24.6,22.0,54,38,18,0.00,40.00,7,4,21,0.00
2014-3-11,71.0,58.7,52.0,39.0,33.0,27.0,51,39,27,0.00,40.00,6,4,18,0.00
2014-3-12,59.0,47.9,29.0,52.0,34.8,20.0,88,62,38,0.00,40.00,11,5,27,0.16
2014-3-13,32.0,24.0,15.0,20.0,3.1,-3.0,73,42,24,0.00,40.00,9,6,25,0.02
2014-3-14,60.0,41.0,23.0,21.0,12.7,4.0,47,33,21,0.00,40.00,11,4,21,0.00
2014-3-15,61.0,52.6,46.0,33.0,23.6,-99.9,50,34,20,0.00,40.00,10,6,24,0.00
2014-3-16,46.0,38.0,28.0,32.0,25.5,21.0,99,64,36,0.00,40.00,8,3,16,0.05
2014-3-17,31.0,25.6,22.0,26.0,22.0,-99.9,97,89,80,0.00,40.00,5,3,12,0.04
2014-3-18,42.0,32.9,24.0,31.0,27.9,23.0,96,83,62,0.00,40.00,4,2,8,0.46
2014-3-19,41.0,34.5,31.0,39.0,34.0,30.0,100,97,90,0.00,40.00,4,2,9,0.37
2014-3-20,55.0,44.5,37.0,39.0,23.9,-99.9,100,49,23,0.00,40.00,8,6,21,0.01
2014-3-21,66.0,50.3,41.0,29.0,21.0,-99.9,48,34,20,0.00,40.00,10,5,21,0.00
2014-3-22,68.0,56.1,50.0,29.0,18.1,-99.9,34,24,13,0.00,40.00,9,5,25,0.00
2014-3-23,48.0,41.0,33.0,29.0,23.8,16.0,67,51,32,0.00,40.00,7,4,17,0.00
2014-3-24,45.0,38.2,33.0,9.0,2.0,-5.0,30,22,14,0.00,40.00,8,4,20,0.00
2014-3-25,38.0,30.4,26.0,32.0,19.5,3.0,94,66,28,0.00,40.00,7,3,19,0.22
2014-3-26,35.0,26.5,19.0,19.0,7.5,3.0,75,46,27,0.00,40.00,8,6,24,0.02
2014-3-27,51.0,35.8,21.0,19.0,13.0,5.0,64,40,27,0.00,40.00,9,4,17,0.00
2014-3-28,60.0,48.2,37.0,54.0,41.1,19.0,100,80,36,0.00,40.00,7,4,18,0.26
2014-3-29,52.0,48.9,46.0,52.0,46.2,-99.9,100,96,89,0.00,40.00,5,2,17,0.82
2014-3-30,42.0,37.2,32.0,39.0,28.7,22.0,95,72,49,0.00,40.00,10,8,30,0.91
2014-3-31,68.0,50.1,36.0,24.0,19.2,15.0,48,31,17,0.00,40.00,10,5,24,0.02
2014-4-1,77.0,61.4,43.0,36.0,27.2,22.0,44,29,17,0.00,40.00,10,3,24,0.00
2014-4-2,79.0,64.7,51.0,41.0,35.0,27.0,50,34,24,0.00,40.00,6,2,16,0.00
2014-4-3,69.0,59.0,50.0,52.0,47.1,36.0,96,67,44,0.00,40.00,5,3,15,0.11
2014-4-4,68.0,58.6,51.0,60.0,53.5,47.0,100,85,51,0.00,40.00,10,4,23,0.41
2014-4-5,56.0,46.6,40.0,48.0,27.5,-99.9,75,51,33,0.00,40.00,8,5,21,0.11
2014-4-6,63.0,46.4,30.0,30.0,26.4,21.0,77,48,29,0.00,40.00,5,3,15,0.00
2014-4-7,49.0,44.7,41.0,47.0,41.4,26.0,100,91,40,0.00,40.00,5,2,11,0.64
2014-4-8,55.0,49.3,45.0,51.0,38.6,32.0,100,69,48,0.00,40.00,9,5,24,0.02
2014-4-9,60.0,48.7,41.0,37.0,30.8,25.0,70,51,37,0.00,40.00,7,4,16,0.00
2014-4-10,73.0,56.8,40.0,33.0,29.1,23.0,50,36,21,0.00,40.00,8,5,18,0.00
2014-4-11,79.0,64.3,52.0,52.0,38.8,31.0,78,43,22,0.00,40.00,9,5,22,0.03
2014-4-12,73.0,60.0,51.0,52.0,45.1,-99.9,86,63,34,0.00,40.00,7,3,16,0.03
2014-4-13,84.0,68.2,55.0,50.0,47.0,44.0,67,49,28,0.00,40.00,8,4,17,0.00
2014-4-14,72.0,63.3,58.0,54.0,51.8,49.0,78,67,50,0.00,40.00,9,5,21,0.00
2014-4-15,59.0,46.5,28.0,59.0,41.8,14.0,100,84,55,0.00,40.00,8,5,32,0.91
2014-4-16,53.0,36.7,23.0,21.0,15.0,10.0,61,43,25,0.00,40.00,6,4,20,0.01
2014-4-17,60.0,43.4,30.0,25.0,18.5,13.0,50,38,24,0.00,40.00,4,2,11,0.00
2014-4-18,59.0,45.9,35.0,36.0,30.7,21.0,75,56,42,0.00,40.00,4,2,12,0.00
2014-4-19,65.0,53.3,43.0,41.0,35.7,-99.9,77,54,36,0.00,40.00,7,3,14,0.00
2014-4-20,67.0,55.4,46.0,38.0,27.9,20.0,58,37,18,0.00,40.00,6,4,14,0.00
2014-4-21,81.0,59.4,41.0,38.0,32.1,28.0,63,39,16,0.00,40.00,5,3,14,0.00
2014-4-22,70.0,62.0,54.0,52.0,41.6,31.0,75,48,37,0.00,40.00,7,4,22,0.01
2014-4-23,61.0,52.3,44.0,34.0,28.1,24.0,57,40,27,0.00,40.00,11,7,25,0.01
2014-4-24,68.0,52.0,40.0,30.0,23.8,14.0,61,38,12,0.00,40.00,5,3,14,0.00
2014-4-25,58.0,53.5,49.0,57.0,42.2,29.0,100,69,38,0.00,40.00,7,3,21,0.81
2014-4-26,76.0,60.6,49.0,43.0,38.0,34.0,65,46,26,0.00,40.00,8,6,23,0.03
2014-4-28,48.0,48.0,48.0,48.0,48.0,48.0,100,100,100,0.00,40.00,2,1,6,0.00
2014-4-29,48.0,46.8,45.0,48.0,46.8,45.0,100,100,98,0.00,40.00,4,3,11,1.17
2014-4-30,60.0,52.7,48.0,60.0,52.5,48.0,100,100,97,0.00,40.00,4,2,8,0.20
2014-5-1,72.0,61.2,53.0,55.0,46.4,34.0,93,62,32,0.00,40.00,10,5,21,0.08
2014-5-2,68.0,56.0,46.0,35.0,32.2,30.0,59,42,25,0.00,40.00,8,4,19,0.00
2014-5-3,71.0,57.4,47.0,38.0,33.1,-99.9,60,42,26,0.00,40.00,8,4,24,0.00
2014-5-4,75.0,63.7,53.0,44.0,35.7,29.0,57,36,24,0.00,40.00,8,6,26,0.00
2014-5-5,58.0,53.0,49.0,52.0,41.4,28.0,98,68,39,0.00,40.00,7,2,17,0.28
2014-5-6,82.0,62.2,50.0,58.0,51.8,48.0,100,74,32,0.00,40.00,5,2,12,0.21
2014-5-13,80.0,72.1,67.0,61.0,60.5,59.0,80,68,52,0.00,40.00,4,2,9,0.00
2014-5-14,83.0,68.7,61.0,66.0,61.8,57.0,96,80,49,0.00,40.00,8,2,17,0.11
2014-5-15,66.0,62.4,53.0,64.0,60.7,51.0,100,94,84,0.00,40.00,6,3,16,1.61
2014-5-16,67.0,53.1,47.0,49.0,42.3,37.0,92,69,39,0.00,40.00,8,5,26,0.82
2014-5-17,64.0,50.5,42.0,39.0,33.7,-99.9,82,57,29,0.00,40.00,7,4,21,0.00
2014-5-18,67.0,52.2,40.0,43.0,36.0,31.0,84,57,29,0.00,40.00,5,2,11,0.00
2014-5-19,69.0,54.3,42.0,44.0,34.0,-99.9,74,51,33,0.00,40.00,4,2,11,0.00
2014-5-20,80.0,61.8,48.0,55.0,46.9,-99.9,90,63,31,0.00,40.00,6,2,15,0.00
2014-5-21,81.0,70.6,60.0,60.0,56.4,52.0,79,62,44,0.00,40.00,5,3,14,0.00
2014-5-22,82.0,70.7,64.0,60.0,54.4,-99.9,79,59,42,0.00,40.00,5,4,22,0.00
2014-5-23,79.0,66.7,57.0,54.0,46.7,39.0,76,51,25,0.00,40.00,6,3,16,0.00
2014-5-24,78.0,62.6,50.0,48.0,42.3,-99.9,73,51,31,0.00,40.00,5,3,14,0.00
2014-5-25,79.0,65.1,50.0,53.0,49.0,44.0,86,58,35,0.00,40.00,4,2,11,0.00
2014-5-26,87.0,71.2,55.0,61.0,54.4,50.0,97,60,29,0.00,40.00,6,2,15,0.00
2014-5-27,87.0,72.5,64.0,75.0,61.6,54.0,91,70,47,0.00,40.00,6,3,19,0.24
2014-5-28,84.0,71.7,65.0,68.0,61.6,58.0,89,71,49,0.00,40.00,5,3,16,0.16
2014-5-29,72.0,64.0,60.0,67.0,62.3,59.0,100,94,79,0.00,40.00,5,2,12,0.86
2014-5-30,79.0,65.9,61.0,68.0,62.2,59.0,100,89,59,0.00,40.00,4,2,10,0.01
2014-5-31,80.0,66.0,52.0,59.0,54.1,-99.9,99,70,45,0.00,40.00,3,2,10,0.01
2014-6-1,76.0,64.2,55.0,57.0,52.5,47.0,80,66,52,0.00,40.00,7,2,12,0.00
2014-6-2,82.0,73.8,64.0,65.0,61.3,57.0,81,66,54,0.00,40.00,4,3,9,0.00
2014-6-3,82.0,69.1,61.0,68.0,60.3,56.0,90,75,51,0.00,40.00,4,2,12,0.00
2014-6-4,82.0,71.6,64.0,66.0,63.0,60.0,100,76,58,0.00,40.00,6,2,19,0.25
2014-6-5,76.0,68.5,58.0,65.0,58.4,48.0,100,72,46,0.00,40.00,6,4,17,0.54
2014-6-6,83.0,66.5,50.0,58.0,50.9,47.0,97,61,31,0.00,40.00,4,2,9,0.17
2014-6-7,82.0,67.7,57.0,62.0,53.9,-99.9,83,64,49,0.00,40.00,3,2,8,0.00
2014-6-8,77.0,68.1,61.0,70.0,63.7,60.0,100,87,70,0.00,40.00,5,2,12,0.27
2014-6-9,83.0,69.8,60.0,66.0,61.3,55.0,100,76,45,0.00,40.00,4,2,15,0.27
2014-6-10,86.0,74.5,62.0,69.0,62.9,58.0,96,69,48,0.00,40.00,5,2,12,0.00
2014-6-11,84.0,70.2,60.0,71.0,64.4,60.0,99,83,59,0.00,40.00,5,2,14,0.63
2014-6-12,78.0,67.2,63.0,71.0,65.2,63.0,100,94,73,0.00,40.00,5,2,12,0.74
2014-6-13,83.0,69.5,62.0,68.0,61.9,56.0,100,80,53,0.00,40.00,4,2,16,0.03
2014-6-14,81.0,67.4,56.0,58.0,48.5,-99.9,85,56,28,0.00,40.00,5,3,19,0.03
2014-6-15,84.0,67.7,51.0,64.0,56.8,47.0,94,70,51,0.00,40.00,4,2,10,0.00
2014-6-16,88.0,74.5,62.0,71.0,64.1,56.0,99,73,48,0.00,40.00,3,1,7,0.00
2014-6-17,89.0,76.8,64.0,71.0,64.2,59.0,92,67,50,0.00,40.00,4,2,11,0.00
2014-6-18,92.0,80.6,73.0,68.0,63.2,58.0,72,57,40,0.00,40.00,5,3,14,0.00
2014-6-19,85.0,75.5,69.0,72.0,63.4,57.0,79,66,53,0.00,40.00,4,3,14,0.00
2014-6-20,88.0,72.1,64.0,73.0,65.8,62.0,99,82,57,0.00,40.00,7,2,16,0.52
2014-6-21,86.0,71.9,64.0,72.0,63.3,-99.9,100,79,47,0.00,40.00,4,2,11,0.52
2014-6-22,85.0,71.6,64.0,69.0,64.8,61.0,98,81,53,0.00,40.00,3,2,9,0.03
2014-6-23,77.0,66.8,62.0,68.0,64.3,62.0,100,92,69,0.00,40.00,5,2,9,0.03
2014-6-24,84.0,73.4,63.0,70.0,65.6,59.0,95,77,63,0.00,40.00,5,3,12,0.00
2014-6-25,83.0,72.4,65.0,72.0,66.5,62.0,99,83,61,0.00,40.00,4,2,12,0.01
2014-6-26,87.0,74.6,67.0,68.0,62.3,57.0,86,67,44,0.00,40.00,4,2,12,0.01
2014-6-27,88.0,74.1,61.0,68.0,62.4,59.0,94,69,40,0.00,40.00,4,1,10,0.00
2014-6-28,80.0,69.8,66.0,71.0,63.2,-99.9,98,83,65,0.00,40.00,3,1,7,0.07
2014-6-29,72.0,65.7,62.0,65.0,61.1,57.0,96,86,67,0.00,40.00,4,2,10,0.07
2014-6-30,89.0,71.7,58.0,69.0,64.3,58.0,99,80,50,0.00,40.00,5,2,12,0.01
2014-7-1,90.0,77.1,66.0,74.0,68.8,65.0,99,78,49,0.00,40.00,4,2,10,0.00
2014-7-2,94.0,78.3,68.0,72.0,67.9,60.0,99,73,41,0.00,40.00,5,2,12,0.21
2014-7-3,84.0,71.4,65.0,76.0,67.2,58.0,100,87,68,0.00,40.00,5,2,12,0.21
2014-7-4,77.0,68.7,60.0,58.0,51.6,43.0,78,57,34,0.00,40.00,6,3,14,0.01
2014-7-5,81.0,64.4,50.0,53.0,44.9,-99.9,85,54,30,0.00,40.00,4,2,10,0.00
2014-7-6,85.0,70.2,54.0,61.0,53.6,46.0,84,58,37,0.00,40.00,5,2,12,0.00
2014-7-7,88.0,74.6,64.0,65.0,57.3,53.0,72,55,42,0.00,40.00,8,3,16,0.00
2014-7-8,90.0,75.9,67.0,69.0,60.9,55.0,89,62,39,0.00,40.00,7,4,24,0.04
2014-7-9,83.0,73.7,68.0,70.0,63.4,59.0,90,72,46,0.00,40.00,5,3,14,0.05
2014-7-10,85.0,72.3,62.0,68.0,61.4,57.0,99,71,47,0.00,40.00,4,2,10,0.17
2014-7-11,84.0,69.3,57.0,69.0,62.6,57.0,100,82,54,0.00,40.00,3,2,7,0.18
2014-7-12,87.0,72.7,64.0,71.0,64.5,63.0,98,76,54,0.00,40.00,5,2,13,0.00
2014-7-13,92.0,76.8,66.0,73.0,67.5,64.0,96,75,44,0.00,40.00,6,2,13,0.00
2014-7-14,88.0,77.4,69.0,74.0,66.7,62.0,85,71,46,0.00,40.00,4,3,14,0.01
2014-7-15,80.0,71.0,65.0,69.0,63.3,56.0,91,77,59,0.00,40.00,4,2,10,0.01
2014-7-16,80.0,66.7,55.0,59.0,50.9,44.0,88,60,35,0.00,40.00,4,2,12,0.00
2014-7-17,79.0,66.0,53.0,55.0,50.1,45.0,86,59,36,0.00,40.00,4,2,8,0.00
2014-7-18,78.0,66.3,60.0,63.0,56.7,48.0,97,72,57,0.00,40.00,3,1,8,0.05
2014-7-19,71.0,62.6,61.0,64.0,60.6,59.0,99,94,74,0.00,40.00,2,1,4,0.29
2014-7-20,72.0,64.1,59.0,65.0,62.1,59.0,100,93,79,0.00,40.00,2,0,5,0.05
2014-7-21,83.0,70.5,63.0,70.0,65.5,62.0,99,85,60,0.00,40.00,2,1,6,0.00
2014-7-22,89.0,75.3,67.0,72.0,66.9,64.0,99,78,50,0.00,40.00,4,2,10,0.00
2014-7-23,91.0,74.8,66.0,73.0,66.3,62.0,98,78,43,0.00,40.00,4,2,11,0.00
2014-7-24,77.0,68.1,65.0,70.0,65.7,63.0,99,92,70,0.00,40.00,3,2,10,0.29
2014-7-25,83.0,68.2,59.0,64.0,59.3,53.0,97,75,49,0.00,40.00,4,2,8,0.01
2014-7-26,88.0,72.2,63.0,68.0,61.2,57.0,98,70,39,0.00,40.00,4,2,10,0.00
2014-7-27,79.0,70.1,64.0,70.0,65.6,59.0,99,86,70,0.00,40.00,7,3,22,0.34
2014-7-28,78.0,67.2,59.0,65.0,58.2,53.0,98,74,49,0.00,40.00,6,4,23,0.33
2014-7-29,73.0,61.7,53.0,57.0,53.3,49.0,96,76,51,0.00,40.00,4,2,11,0.04
2014-7-30,72.0,61.3,50.0,57.0,52.0,49.0,97,74,47,0.00,40.00,3,1,7,0.00
2014-7-31,82.0,65.6,54.0,62.0,55.6,51.0,98,73,38,0.00,40.00,4,2,11,0.01
2014-8-1,74.0,64.1,60.0,64.0,60.4,54.0,99,89,62,0.00,40.00,3,1,7,0.22
2014-8-2,78.0,66.9,61.0,67.0,61.2,58.0,98,83,61,0.00,40.00,4,2,11,0.06
2014-8-3,83.0,69.2,58.0,62.0,58.4,54.0,99,72,41,0.00,40.00,4,2,8,0.01
2014-8-4,84.0,70.5,57.0,64.0,58.4,55.0,94,68,42,0.00,40.00,4,1,7,0.00
2014-8-5,87.0,70.7,62.0,68.0,61.1,56.0,97,74,35,0.00,40.00,3,1,9,0.00
2014-8-6,82.0,71.1,62.0,69.0,61.9,58.0,92,74,54,0.00,40.00,4,1,10,0.05
2014-8-7,85.0,77.5,68.0,62.0,57.2,53.0,66,51,33,0.00,40.00,4,2,11,0.00
2014-8-8,72.0,66.9,60.0,65.0,59.3,52.0,94,77,62,0.00,40.00,4,2,8,0.00
2014-8-9,68.0,63.9,63.0,67.0,62.7,62.0,99,95,93,0.00,40.00,4,2,7,0.17
2014-8-10,69.0,64.3,63.0,67.0,63.4,62.0,100,97,87,0.00,40.00,2,1,5,0.05
2014-8-11,65.0,62.9,61.0,64.0,62.3,60.0,100,98,93,0.00,40.00,2,1,4,0.75
2014-8-12,78.0,67.7,62.0,74.0,66.1,59.0,100,95,76,0.00,40.00,6,2,16,0.76
2014-8-13,75.0,65.1,58.0,62.0,56.4,51.0,88,75,53,0.00,40.00,6,3,17,0.01
2014-8-14,75.0,63.2,54.0,62.0,53.9,50.0,96,73,50,0.00,40.00,4,2,14,0.00
2014-8-15,78.0,64.1,54.0,60.0,53.5,48.0,99,72,42,0.00,40.00,5,2,11,0.00
2014-8-16,81.0,61.5,51.0,59.0,51.0,49.0,97,70,41,0.00,40.00,5,1,12,0.00
2014-8-17,78.0,70.4,65.0,65.0,59.7,51.0,86,69,55,0.00,40.00,4,2,12,0.00
2014-8-18,72.0,67.3,64.0,69.0,64.8,61.0,99,92,81,0.00,40.00,3,1,5,0.25
2014-8-19,83.0,70.2,64.0,73.0,67.7,64.0,100,93,71,0.00,40.00,3,1,10,0.77
2014-8-20,80.0,69.6,61.0,73.0,65.4,61.0,100,88,68,0.00,40.00,4,2,10,0.68
2014-8-21,83.0,70.9,65.0,72.0,66.1,63.0,99,85,64,0.00,40.00,5,2,14,0.18
2014-8-22,83.0,71.5,65.0,72.0,67.9,65.0,100,89,70,0.00,40.00,4,2,12,0.20
2014-8-23,83.0,69.9,67.0,72.0,67.0,66.0,99,90,68,0.00,40.00,6,2,12,0.25
2014-8-24,71.0,65.1,62.0,65.0,62.6,60.0,99,92,75,0.00,40.00,3,2,9,0.30
2014-8-25,77.0,65.3,56.0,61.0,57.1,54.0,99,77,49,0.00,40.00,4,2,8,0.01
2014-8-26,82.0,64.4,53.0,62.0,55.6,52.0,99,77,41,0.00,40.00,3,1,6,0.00
2014-8-27,86.0,69.9,55.0,66.0,61.4,55.0,99,77,46,0.00,40.00,4,1,9,0.00
2014-8-28,88.0,76.2,67.0,68.0,61.8,53.0,90,64,38,0.00,40.00,3,2,12,0.00
2014-8-29,82.0,69.1,59.0,63.0,58.3,54.0,88,69,50,0.00,40.00,4,2,10,0.00
2014-8-30,87.0,72.2,66.0,72.0,66.0,62.0,94,80,59,0.00,40.00,6,2,12,0.00
2014-8-31,85.0,72.7,67.0,72.0,68.2,65.0,99,87,54,0.00,40.00,5,2,12,0.08
2014-9-1,87.0,74.8,66.0,69.0,65.7,60.0,96,75,50,0.00,40.00,5,3,16,0.08
2014-9-2,89.0,74.1,66.0,70.0,65.7,63.0,98,78,45,0.00,40.00,6,3,16,0.11
2014-9-3,82.0,71.2,64.0,72.0,65.6,62.0,99,84,60,0.00,40.00,4,2,10,0.16
2014-9-4,83.0,72.3,65.0,72.0,67.5,64.0,99,85,62,0.00,40.00,4,2,11,0.01
2014-9-5,88.0,72.5,67.0,72.0,68.1,66.0,99,88,54,0.00,40.00,5,2,10,0.00
2014-9-6,83.0,68.1,65.0,72.0,65.3,64.0,99,91,53,0.00,40.00,4,2,10,0.21
2014-9-7,71.0,65.3,61.0,65.0,60.8,56.0,99,86,69,0.00,40.00,4,2,10,0.22
2014-9-8,67.0,61.2,56.0,60.0,56.5,50.0,98,85,68,0.00,40.00,3,2,9,0.07
2014-9-9,75.0,65.8,59.0,63.0,59.5,55.0,92,81,63,0.00,40.00,4,2,8,0.07
2014-9-10,72.0,67.0,63.0,66.0,63.9,62.0,98,90,75,0.00,40.00,6,3,12,0.00
2014-9-11,82.0,70.8,63.0,70.0,64.6,62.0,99,82,59,0.00,40.00,6,3,19,0.00
2014-9-12,77.0,68.6,64.0,67.0,63.9,62.0,98,85,71,0.00,40.00,5,2,10,0.03
2014-9-13,70.0,60.9,52.0,64.0,57.4,47.0,100,88,61,0.00,40.00,5,2,12,0.61
2014-9-14,60.0,54.0,47.0,55.0,49.8,46.0,98,86,68,0.00,40.00,5,1,9,0.01
2014-9-15,72.0,59.5,51.0,62.0,56.0,51.0,99,89,64,0.00,40.00,4,2,9,0.00
2014-9-16,73.0,64.3,56.0,60.0,54.8,49.0,96,72,57,0.00,40.00,6,3,15,0.00
2014-9-17,69.0,59.7,53.0,56.0,51.4,48.0,86,75,55,0.00,40.00,4,2,10,0.00
2014-9-18,74.0,60.6,51.0,59.0,54.1,50.0,99,81,54,0.00,40.00,4,1,7,0.00
2014-9-19,62.0,58.5,55.0,57.0,52.7,48.0,97,82,69,0.00,40.00,3,2,6,0.00
2014-9-20,77.0,63.7,55.0,60.0,55.2,53.0,98,76,46,0.00,40.00,5,2,14,0.00
2014-9-21,81.0,64.6,54.0,63.0,56.8,47.0,98,78,52,0.00,40.00,7,3,23,0.00
2014-9-22,69.0,59.4,52.0,49.0,44.6,42.0,70,59,41,0.00,40.00,5,3,17,0.00
2014-9-23,70.0,53.8,42.0,46.0,41.9,38.0,97,67,37,0.00,40.00,3,2,8,0.00
2014-9-24,68.0,56.9,50.0,53.0,45.0,38.0,84,65,47,0.00,40.00,6,3,12,0.00
2014-9-25,73.0,62.9,56.0,63.0,55.3,52.0,89,77,57,0.00,40.00,6,3,13,0.00
2014-9-26,79.0,63.3,58.0,58.0,56.5,54.0,96,80,47,0.00,40.00,5,2,9,0.00
2014-9-27,78.0,62.3,51.0,58.0,52.0,48.0,96,72,36,0.00,40.00,5,2,9,0.00
2014-9-28,72.0,60.3,51.0,59.0,54.5,50.0,98,83,61,0.00,40.00,4,2,7,0.00
2014-9-29,75.0,62.6,56.0,62.0,57.6,55.0,98,85,60,0.00,40.00,3,1,7,0.01
2014-9-30,79.0,62.7,55.0,62.0,53.8,45.0,99,77,43,0.00,40.00,4,2,10,0.00
2014-10-1,76.0,61.8,55.0,59.0,54.5,50.0,98,78,51,0.00,40.00,5,2,12,0.00
2014-10-2,80.0,61.8,57.0,60.0,56.6,50.0,99,86,35,0.00,40.00,4,1,9,0.00
2014-10-3,74.0,63.4,61.0,66.0,60.7,56.0,99,91,68,0.00,40.00,6,3,12,0.00
2014-10-4,61.0,50.6,42.0,61.0,39.2,22.0,100,67,35,0.00,40.00,6,5,21,0.00
2014-10-5,60.0,44.0,35.0,34.0,28.0,23.0,82,56,24,0.00,40.00,6,4,21,0.00
2014-10-6,66.0,47.5,39.0,54.0,41.7,30.0,100,81,43,0.00,40.00,7,2,26,0.00
2014-10-7,65.0,52.8,47.0,57.0,51.9,47.0,100,97,74,0.00,40.00,8,3,20,0.00
2014-10-8,65.0,55.3,52.0,57.0,49.1,43.0,100,81,46,0.00,40.00,9,5,25,0.00
2014-10-9,69.0,51.7,43.0,48.0,42.2,35.0,96,73,32,0.00,40.00,5,2,14,0.00
2014-10-10,58.0,54.8,50.0,57.0,52.7,44.0,100,92,76,0.00,40.00,3,1,6,0.00
2014-10-11,59.0,55.9,53.0,58.0,55.6,53.0,100,98,93,0.00,40.00,5,2,9,0.00
2014-10-14,72.0,69.0,65.0,66.0,63.8,61.0,99,83,75,0.00,40.00,0,0,0,0.17
2014-10-15,66.0,59.4,54.0,66.0,57.5,52.0,100,93,67,0.00,40.00,0,0,0,1.39
2014-10-16,61.0,53.9,46.0,54.0,49.3,46.0,100,85,62,0.00,40.00,0,0,0,0.16
2014-10-17,71.0,58.6,52.0,51.0,47.8,46.0,84,69,42,0.00,40.00,0,0,0,0.01
2014-10-18,62.0,54.5,46.0,49.0,42.3,39.0,83,63,54,0.00,40.00,0,0,0,0.02
2014-10-19,59.0,47.5,42.0,39.0,33.2,29.0,80,59,34,0.00,40.00,0,0,0,0.02
2014-10-20,66.0,48.1,35.0,48.0,37.5,29.0,91,70,37,0.00,40.00,0,0,0,0.01
2014-10-21,58.0,52.2,47.0,50.0,43.8,38.0,91,73,61,0.00,40.00,0,0,0,0.08
2014-10-22,57.0,48.5,45.0,42.0,38.3,37.0,76,68,51,0.00,40.00,7,2,24,0.06
2014-10-23,59.0,48.8,45.0,42.0,38.0,36.0,73,67,51,0.00,40.00,7,5,25,0.00
2014-10-24,69.0,52.8,45.0,41.0,37.1,30.0,77,58,31,0.00,40.00,5,3,16,0.00
2014-10-25,71.0,52.0,40.0,47.0,38.1,33.0,84,62,32,0.00,40.00,6,3,16,0.00
2014-10-26,68.0,59.0,53.0,49.0,27.3,10.0,70,35,12,0.00,40.00,9,4,22,0.00
2014-10-27,79.0,57.3,42.0,45.0,32.4,20.0,53,40,24,0.00,40.00,5,3,12,0.00
2014-10-28,80.0,65.5,53.0,53.0,45.4,40.0,77,51,29,0.00,40.00,8,3,20,0.00
2014-10-29,67.0,57.6,49.0,51.0,43.5,33.0,90,61,39,0.00,40.00,6,3,16,0.03
2014-10-30,56.0,45.8,38.0,35.0,32.5,29.0,82,61,39,0.00,40.00,5,2,11,0.03
2014-10-31,51.0,39.7,31.0,40.0,33.3,28.0,98,80,49,0.00,40.00,4,1,9,0.11
2014-11-1,45.0,40.2,36.0,40.0,34.8,30.0,99,82,60,0.00,40.00,8,4,22,0.25
2014-11-2,45.0,36.8,31.0,27.0,20.8,16.0,75,53,33,0.00,40.00,12,6,28,0.01
2014-11-3,64.0,45.3,32.0,25.0,17.6,11.0,62,38,14,0.00,40.00,8,4,17,0.00
2014-11-4,74.0,59.4,53.0,29.0,17.3,5.0,30,20,10,0.00,40.00,6,4,19,0.00
2014-11-5,61.0,57.2,52.0,41.0,31.9,13.0,65,41,15,0.00,40.00,5,3,18,0.00
2014-11-6,63.0,49.2,42.0,55.0,44.4,36.0,100,85,51,0.00,40.00,9,5,27,0.47
2014-11-7,48.0,40.7,31.0,38.0,30.0,22.0,85,66,44,0.00,40.00,9,5,23,0.06
2014-11-8,49.0,37.4,27.0,32.0,27.1,21.0,87,67,49,0.00,40.00,6,3,13,0.00
2014-11-9,60.0,48.6,41.0,35.0,31.0,29.0,70,52,33,0.00,40.00,5,3,15,0.00
2014-11-10,64.0,49.8,37.0,39.0,34.6,29.0,73,58,37,0.00,40.00,7,3,14,0.00
2014-11-11,70.0,52.2,39.0,43.0,37.2,30.0,92,61,24,0.00,40.00,5,2,9,0.00
2014-11-12,62.0,49.5,36.0,44.0,35.2,25.0,79,60,26,0.00,40.00,6,3,22,0.00
2014-11-13,41.0,35.9,30.0,32.0,27.9,19.0,82,73,64,0.00,40.00,5,3,14,0.00
2014-11-18,26.0,18.9,15.0,14.0,2.9,-1.0,65,50,35,0.00,40.00,9,6,28,0.02
2014-11-19,38.0,24.2,14.0,9.0,5.9,2.0,61,46,29,0.00,40.00,7,5,19,0.00
2014-11-20,47.0,37.5,27.0,24.0,16.4,10.0,53,43,26,0.00,40.00,11,7,34,0.00
2014-11-21,39.0,28.2,21.0,12.0,4.5,-2.0,56,38,20,0.00,40.00,7,4,17,0.00
2014-11-22,50.0,33.2,20.0,16.0,9.5,0.0,53,37,24,0.00,40.00,6,3,10,0.00
2014-11-23,49.0,40.2,31.0,49.0,27.5,15.0,100,63,41,0.00,40.00,5,2,10,0.77
2014-11-24,67.0,57.7,50.0,55.0,47.4,35.0,100,73,35,0.00,40.00,9,6,24,0.83
2014-11-25,57.0,47.6,42.0,39.0,28.5,19.0,69,49,31,0.00,40.00,8,4,19,0.01
2014-11-26,42.0,35.2,32.0,35.0,31.2,23.0,100,87,48,0.00,40.00,3,1,8,0.49
2014-11-27,37.0,31.7,27.0,33.0,26.2,19.0,100,81,64,0.00,40.00,7,4,16,0.26
2014-11-28,35.0,27.1,24.0,22.0,15.6,11.0,88,63,42,0.00,40.00,6,4,15,0.12
2014-11-29,39.0,30.7,23.0,27.0,21.0,16.0,80,67,52,0.00,40.00,4,2,9,0.10
2014-11-30,63.0,48.6,36.0,46.0,36.4,26.0,71,63,52,0.00,40.00,10,4,31,0.04
2014-12-1,63.0,56.2,48.0,54.0,47.3,42.0,85,72,57,0.00,40.00,9,6,24,0.01
2014-12-2,43.0,34.6,32.0,41.0,34.2,31.0,100,98,91,0.00,40.00,5,3,12,0.81
2014-12-3,57.0,41.3,34.0,55.0,37.5,27.0,100,88,66,0.00,40.00,11,4,24,0.22
2014-12-4,45.0,36.9,32.0,37.0,28.6,23.0,100,73,54,0.00,40.00,4,2,14,0.08
2014-12-5,38.0,36.0,34.0,37.0,35.7,34.0,100,99,96,0.00,40.00,4,3,11,0.25
2014-12-6,49.0,41.6,37.0,49.0,40.7,36.0,100,96,78,0.00,40.00,8,3,17,0.38
2014-12-7,47.0,37.5,31.0,37.0,23.9,19.0,81,60,32,0.00,40.00,8,6,15,0.05
2014-12-8,34.0,30.7,27.0,32.0,21.7,14.0,100,70,55,0.00,40.00,5,2,9,0.00
2014-12-9,41.0,35.5,31.0,38.0,33.2,30.0,100,92,70,0.00,40.00,9,2,21,0.21
2014-12-10,39.0,33.7,29.0,32.0,24.4,20.0,78,66,57,0.00,40.00,11,6,24,0.06
2014-12-11,37.0,30.0,25.0,19.0,13.2,7.0,69,50,31,0.00,40.00,11,6,26,0.00
2014-12-12,49.0,36.3,29.0,15.0,12.4,9.0,55,39,22,0.00,40.00,10,6,26,0.00
2014-12-13,47.0,37.0,32.0,27.0,20.7,13.0,75,53,36,0.00,40.00,8,5,25,0.00
2014-12-14,49.0,40.3,33.0,34.0,31.0,26.0,80,69,52,0.00,40.00,7,5,24,0.00
2014-12-15,55.0,40.4,31.0,36.0,32.8,30.0,98,76,45,0.00,40.00,5,2,10,0.00
2014-12-16,55.0,43.1,36.0,44.0,37.6,33.0,99,81,59,0.00,40.00,8,3,22,0.08
2014-12-17,47.0,40.0,32.0,36.0,28.5,22.0,76,64,42,0.00,40.00,9,6,26,0.03
2014-12-18,39.0,32.8,26.0,22.0,19.0,16.0,67,57,46,0.00,40.00,8,4,16,0.00
2014-12-19,44.0,32.2,26.0,23.0,19.5,16.0,72,60,42,0.00,40.00,5,3,15,0.00
2014-12-20,36.0,27.6,23.0,25.0,20.5,18.0,83,74,62,0.00,40.00,4,2,7,0.00
2014-12-21,48.0,36.4,31.0,29.0,26.2,25.0,81,68,43,0.00,40.00,4,2,9,0.00
2014-12-22,35.0,33.2,32.0,35.0,30.1,26.0,100,88,74,0.00,40.00,3,1,5,0.09
2014-12-23,43.0,39.2,35.0,43.0,39.0,35.0,100,99,95,0.00,40.00,4,1,7,0.29
2014-12-24,51.0,46.0,42.0,51.0,46.0,42.0,100,100,97,0.00,40.00,10,2,22,0.64
2014-12-25,49.0,40.5,35.0,43.0,30.7,25.0,88,68,56,0.00,40.00,10,6,29,0.11
2014-12-26,55.0,39.8,28.0,34.0,26.4,16.0,94,63,29,0.00,40.00,3,2,9,0.00
2014-12-27,62.0,45.4,35.0,31.0,23.0,18.0,62,42,25,0.00,40.00,4,2,9,0.00
2014-12-28,55.0,50.0,47.0,46.0,40.2,28.0,91,71,41,0.00,40.00,8,4,22,0.02
2014-12-29,45.0,39.0,34.0,40.0,36.7,34.0,100,92,76,0.00,40.00,4,2,9,0.18
2014-12-30,37.0,31.0,26.0,33.0,24.8,10.0,100,80,51,0.00,40.00,6,3,14,0.11
2014-12-31,35.0,26.7,21.0,14.0,7.8,-2.0,65,47,22,0.00,40.00,6,4,23,0.05
2015-1-1,43.0,31.8,24.0,20.0,13.1,6.0,51,46,39,0.00,40.00,10,7,26,0.00
2015-1-2,42.0,36.8,33.0,29.0,23.7,17.0,79,59,51,0.00,40.00,8,5,22,0.00